Location: Home
(42.5358°N, 72.7383°W)
Time: 13:26:54
(UTC-05:00)

A-11 Canister half - All Passes

Search period start: 30 November 2021 00:00
Search period end: 10 December 2021 00:00
Orbit: 1524 x 1684 km, 47.3° (Epoch: 29 November)

Date Brightness Start Highest point End Pass type
(mag) Time Alt. Az. Time Alt. Az. Time Alt. Az.
30 Nov - 01:25:55 10° SSW 01:35:35 51° SE 01:45:07 10° ENE visible
30 Nov - 03:30:16 10° WSW 03:40:29 81° NNW 03:50:28 10° ENE visible
30 Nov - 05:36:23 10° WNW 05:46:26 68° N 05:56:10 10° E visible
30 Nov - 07:42:02 10° WNW 07:52:00 80° SSW 08:01:34 10° SE daylight
30 Nov - 09:47:58 10° WNW 09:56:03 31° SW 10:03:55 10° S daylight
30 Nov - 23:06:41 10° SE 23:10:38 13° ESE 23:14:34 10° E night (unlit)
01 Dec - 01:04:19 10° SSW 01:13:54 49° SE 01:23:24 10° ENE visible
01 Dec - 03:08:32 10° WSW 03:18:45 82° NNW 03:28:46 10° ENE visible
01 Dec - 05:14:37 10° W 05:24:42 68° N 05:34:27 10° E visible
01 Dec - 07:20:19 10° WNW 07:30:19 83° SSW 07:39:56 10° ESE daylight
01 Dec - 09:26:11 10° WNW 09:34:27 32° SW 09:42:30 10° S daylight
01 Dec - 22:45:56 10° SE 22:49:02 12° ESE 22:52:09 10° ESE night (unlit)
02 Dec - 00:42:45 10° SSW 00:52:15 47° SE 01:01:40 10° ENE visible
02 Dec - 02:46:47 10° WSW 02:57:01 84° NNW 03:07:04 10° ENE visible
02 Dec - 04:52:51 10° W 05:02:57 68° N 05:12:44 10° E visible
02 Dec - 06:58:36 10° WNW 07:08:38 85° SSW 07:18:17 10° ESE daylight
02 Dec - 09:04:23 10° WNW 09:12:50 34° SW 09:21:04 10° SSE daylight
02 Dec - 22:25:36 10° SE 22:27:27 11° ESE 22:29:18 10° ESE night (unlit)
03 Dec - 00:21:12 10° SSW 00:30:35 45° SE 00:39:57 10° ENE visible
03 Dec - 02:25:04 10° WSW 02:35:18 86° NNW 02:45:22 10° ENE visible
03 Dec - 04:31:06 10° W 04:41:12 67° N 04:51:02 10° E visible
03 Dec - 06:36:51 10° WNW 06:46:56 87° SSW 06:56:38 10° ESE daylight
03 Dec - 08:42:36 10° WNW 08:51:14 36° SW 08:59:36 10° SSE daylight
03 Dec - 23:59:39 10° SSW 00:08:56 43° SE 00:18:12 10° ENE visible
04 Dec - 02:03:21 10° WSW 02:13:34 87° NNW 02:23:40 10° ENE visible
04 Dec - 04:09:20 10° W 04:19:28 67° N 04:29:18 10° E visible
04 Dec - 06:15:08 10° WNW 06:25:14 89° SSW 06:34:58 10° ESE visible
04 Dec - 08:20:49 10° WNW 08:29:37 38° SW 08:38:08 10° SSE daylight
04 Dec - 23:38:06 10° SSW 23:47:17 41° SE 23:56:28 10° ENE night (unlit)
05 Dec - 01:41:38 10° WSW 01:51:51 89° NNW 02:01:59 10° ENE visible
05 Dec - 03:47:34 10° W 03:57:42 67° N 04:07:35 10° E visible
05 Dec - 05:53:25 10° WNW 06:03:32 89° NNE 06:13:18 10° ESE visible
05 Dec - 07:59:03 10° WNW 08:07:59 40° SW 08:16:39 10° SSE daylight
05 Dec - 23:16:36 10° SSW 23:25:38 39° SE 23:34:42 10° ENE night (unlit)
06 Dec - 01:19:55 10° WSW 01:30:08 89° SSE 01:40:17 10° ENE visible
06 Dec - 03:25:49 10° W 03:35:58 67° N 03:45:53 10° E visible
06 Dec - 05:31:40 10° WNW 05:41:50 87° NNE 05:51:37 10° ESE visible
06 Dec - 07:37:17 10° WNW 07:46:22 42° SW 07:55:09 10° SSE daylight
06 Dec - 22:55:05 10° SSW 23:04:00 37° SE 23:12:56 10° ENE night (unlit)
07 Dec - 00:58:13 10° WSW 01:08:25 87° SSE 01:18:34 10° ENE visible
07 Dec - 03:04:03 10° W 03:14:13 68° N 03:24:09 10° E visible
07 Dec - 05:09:56 10° WNW 05:20:07 85° NNE 05:29:57 10° ESE visible
07 Dec - 07:15:32 10° WNW 07:24:44 44° SW 07:33:39 10° SSE daylight
07 Dec - 22:33:36 10° SSW 22:42:22 35° SE 22:51:09 10° ENE night (unlit)
08 Dec - 00:36:31 10° WSW 00:46:43 85° SSE 00:56:52 10° ENE visible
08 Dec - 02:42:17 10° W 02:52:27 68° N 03:02:26 10° E visible
08 Dec - 04:48:13 10° WNW 04:58:24 83° NNE 05:08:16 10° ESE visible
08 Dec - 06:53:46 10° WNW 07:03:06 47° SW 07:12:08 10° SSE daylight
08 Dec - 09:03:43 10° WSW 09:06:09 11° WSW 09:08:33 10° SW daylight
08 Dec - 22:12:07 10° S 22:20:44 33° SE 22:29:23 10° ENE night (unlit)
09 Dec - 00:14:50 10° WSW 00:25:00 82° SSE 00:35:10 10° ENE visible
09 Dec - 02:20:32 10° W 02:30:43 68° N 02:40:43 10° ENE visible
09 Dec - 04:26:29 10° WNW 04:36:41 82° NNE 04:46:34 10° ESE visible
09 Dec - 06:32:01 10° WNW 06:41:28 49° SW 06:50:36 10° SSE visible
09 Dec - 08:41:08 10° W 08:44:35 12° WSW 08:48:00 10° SW daylight
09 Dec - 21:50:40 10° S 21:59:06 32° SE 22:07:35 10° ENE night (unlit)
